Time,TemperatureF,DewpointF,PressureIn,WindDirection,WindDirectionDegrees,WindSpeedMPH,WindSpeedGustMPH,Humidity,HourlyPrecipIn,Conditions,Clouds,dailyrainin,SoftwareType,DateUTC
2013-10-30 08:22:00,66.0,60.0,30.11,North,-999,-999.0,-999.0,82,-99.99,,,-99.99,,2013-10-30 13:22:00,
2013-10-30 08:52:00,67.0,61.0,30.11,SSE,162,1.0,-999.0,82,-99.99,,,-99.99,,2013-10-30 13:52:00,
2013-10-30 09:11:00,67.0,61.0,30.11,South,188,1.0,-999.0,81,-99.99,,,-99.99,,2013-10-30 14:11:00,
2013-10-30 09:21:00,68.0,61.0,30.12,SSW,209,2.0,-999.0,79,-99.99,,,-99.99,,2013-10-30 14:21:00,
2013-10-30 09:42:00,68.0,61.0,30.12,SSW,195,3.0,-999.0,79,-99.99,,,-99.99,,2013-10-30 14:42:00,
2013-10-30 09:52:00,69.0,62.0,30.12,South,183,3.0,-999.0,79,-99.99,,,-99.99,,2013-10-30 14:52:00,
2013-10-30 10:11:00,69.0,62.0,30.12,South,171,3.0,-999.0,79,-99.99,,,-99.99,,2013-10-30 15:11:00,
2013-10-30 10:22:00,69.0,62.0,30.11,South,182,4.0,-999.0,78,-99.99,,,-99.99,,2013-10-30 15:22:00,
2013-10-30 10:43:00,69.0,62.0,30.11,South,176,1.0,-999.0,78,-99.99,,,-99.99,,2013-10-30 15:43:00,
2013-10-30 10:54:00,70.0,62.0,30.09,SSW,200,4.0,-999.0,77,-99.99,,,-99.99,,2013-10-30 15:54:00,
2013-10-30 11:12:00,71.0,63.0,30.09,SW,236,5.0,-999.0,77,-99.99,,,-99.99,,2013-10-30 16:12:00,
2013-10-30 11:23:00,72.0,64.0,30.09,South,190,4.0,-999.0,76,-99.99,,,-99.99,,2013-10-30 16:23:00,
2013-10-30 11:42:00,72.0,64.0,30.09,SW,236,6.0,-999.0,75,-99.99,,,-99.99,,2013-10-30 16:42:00,
2013-10-30 11:53:00,72.0,64.0,30.09,South,182,7.0,-999.0,76,-99.99,,,-99.99,,2013-10-30 16:53:00,
2013-10-30 12:23:00,73.0,64.0,30.08,SSW,198,6.0,-999.0,73,-99.99,,,-99.99,,2013-10-30 17:23:00,
2013-10-30 12:42:00,74.0,64.0,30.08,SW,215,7.0,-999.0,71,-99.99,,,-99.99,,2013-10-30 17:42:00,
2013-10-30 12:52:00,74.0,64.0,30.07,SSW,203,5.0,-999.0,70,-99.99,,,-99.99,,2013-10-30 17:52:00,
2013-10-30 13:12:00,74.0,64.0,30.07,SSW,205,7.0,-999.0,70,-99.99,,,-99.99,,2013-10-30 18:12:00,
2013-10-30 13:21:00,75.0,64.0,30.06,SSW,213,6.0,-999.0,69,-99.99,,,-99.99,,2013-10-30 18:21:00,
2013-10-30 13:42:00,75.0,64.0,30.06,SW,227,8.0,-999.0,68,-99.99,,,-99.99,,2013-10-30 18:42:00,
2013-10-30 13:52:00,75.0,63.0,30.04,South,178,8.0,-999.0,67,-99.99,,,-99.99,,2013-10-30 18:52:00,
2013-10-30 14:11:00,75.0,63.0,30.03,SSE,167,6.0,-999.0,67,-99.99,,,-99.99,,2013-10-30 19:11:00,
2013-10-30 14:21:00,74.0,61.0,30.02,South,169,9.0,-999.0,65,-99.99,,,-99.99,,2013-10-30 19:21:00,
2013-10-30 14:52:00,74.0,61.0,30.01,South,186,7.0,-999.0,65,-99.99,,,-99.99,,2013-10-30 19:52:00,
2013-10-30 15:22:00,74.0,63.0,30.00,SSW,209,6.0,-999.0,68,-99.99,,,-99.99,,2013-10-30 20:22:00,
2013-10-30 15:52:00,73.0,62.0,30.00,South,172,7.0,-999.0,69,-99.99,,,-99.99,,2013-10-30 20:52:00,
2013-10-30 16:21:00,73.0,63.0,30.00,SSW,211,6.0,-999.0,72,-99.99,,,-99.99,,2013-10-30 21:21:00,
2013-10-30 16:53:00,73.0,64.0,29.99,South,171,4.0,-999.0,74,-99.99,,,-99.99,,2013-10-30 21:53:00,
2013-10-30 17:13:00,73.0,64.0,29.98,SSW,196,3.0,-999.0,74,-99.99,,,-99.99,,2013-10-30 22:13:00,
2013-10-30 17:23:00,72.0,64.0,29.98,SSW,197,1.0,-999.0,75,-99.99,,,-99.99,,2013-10-30 22:23:00,
2013-10-30 17:43:00,72.0,64.0,29.98,North,-999,-999.0,-999.0,75,-99.99,,,-99.99,,2013-10-30 22:43:00,